Regional Weather Roundup
Issued by NWS Memphis, TN

Home | Current Version | Previous Version | Text Only | Print | Product List | Glossary On
Versions: 1 2 3 4 5 6 7 8 9 10 11 12 13 14 15 16 17 18 19 20 21 22 23 24 25 26 27 28 29 30 31 32 33 34 35 36 37 38 39 40 41 42 43 44 45 46 47 48 49 50
923
ASUS44 KMEG 251900
RWRMEG
MEMPHIS CWA HOURLY WEATHER ROUNDUP
NATIONAL WEATHER SERVICE MEMPHIS TN
200 PM CDT WED MAY 25 2016

...WEST TENNESSEE...

CITY           SKY/WX    TMP DP  RH WIND       PRES   REMARKS
MEMPHIS INTL   CLOUDY    83  72  69 SW9       30.09F
NWS MEMPHIS      N/A     83 N/A N/A MISG        N/A
JACKSON        CLOUDY    82  71  69 SW9       30.09F
LEXINGTON      PTSUNNY   84  64  51 S10       30.09F
DYERSBURG      CLOUDY    79  70  73 W8        30.09R
UNION CITY     SUNNY     75  73  94 W6        30.08S
PARIS          PTSUNNY   75  70  83 W6        30.10R


...EASTERN ARKANSAS...

CITY           SKY/WX    TMP DP  RH WIND       PRES   REMARKS
JONESBORO      HVY RAIN  72  68  87 W18G25    30.13R FOG
WEST MEMPHIS   CLOUDY    81  71  71 S12       30.07F
BATESVILLE     CLOUDY    66  64  94 SE8       30.05F
WALNUT RIDGE   PTSUNNY   70  64  83 SW6       30.10F
BLYTHEVILLE    LGT RAIN  74  70  87 SW5       30.08F
SEARCY         LGT RAIN  67  66  97 S6        30.07F
STUTTGART      CLOUDY    84  70  61 S13       30.08S
PINE BLUFF     CLOUDY    84  71  65 S9        30.06F
MONTICELLO     CLOUDY    86  71  60 S9G18     30.07F HX  91


...NORTH MISSISSIPPI...

CITY           SKY/WX    TMP DP  RH WIND       PRES   REMARKS
TUPELO         CLOUDY    87  58  37 S8        30.12S
TUNICA         MOSUNNY   82  72  69 SW9       30.08F
CLARKSDALE     PTSUNNY   88  70  55 S9G16     30.08F HX  92
GREENWOOD      MOSUNNY   87  69  54 S10       30.10F HX  91
STARKVILLE     MOSUNNY   86  61  42 S10G16    30.12S
GOLDEN TRIANGL SUNNY     84  63  48 S12       30.13F


...SOUTHEAST MISSOURI...

CITY           SKY/WX    TMP DP  RH WIND       PRES   REMARKS
KENNETT        PTSUNNY   75  70  83 W16       30.09R
WEST PLAINS    CLOUDY    66  61  84 CALM      29.97F
POPLAR BLUFF   MOSUNNY   78  69  73 SW14      30.07R
CAPE GIRARDEAU CLOUDY    74  67  78 S7        30.05F


...NORTHWEST ALABAMA...

CITY           SKY/WX    TMP DP  RH WIND       PRES   REMARKS
MUSCLE SHOALS  MOSUNNY   87  58  37 S10G16    30.14F


...MIDDLE TENNESSEE...

CITY           SKY/WX    TMP DP  RH WIND       PRES   REMARKS
NASHVILLE      CLOUDY    85  64  49 S13G18    30.13F
CLARKSVILLE    CLOUDY    74  67  78 NE12      30.09F
COLUMBIA       MOSUNNY   86  70  58 S15       30.11F HX  90


...WESTERN KENTUCKY...

CITY           SKY/WX    TMP DP  RH WIND       PRES   REMARKS
PADUCAH        LGT RAIN  71  68  90 SE6       30.08S FOG
FORT CAMPBELL  TSTM      73  70  88 NE9       30.10F FOG


...CENTRAL ARKANSAS...

CITY           SKY/WX    TMP DP  RH WIND       PRES   REMARKS
LITTLE ROCK    LGT RAIN  71  63  75 N15G26    30.10R


SKY/WX REPORTED AS FAIR MEANS FEW OR NO CLOUDS BELOW
12 THOUSAND FEET.





USA.gov is the U.S. government's official web portal to all federal, state and local government web resources and services.